Regional Weather Roundup
Issued by NWS

Home | Current Version | Previous Version | Graphics & Text | Print | Product List | Glossary Off
Versions: 1 2 3 4 5 6 7 8 9 10 11 12 13 14 15 16 17 18 19 20 21 22 23 24 25 26 27 28 29 30 31 32 33 34 35 36 37 38 39 40 41 42 43 44 45 46 47 48 49 50

000
ASUS43 KDMX 230701
RWRIA

WEATHER ROUNDUP FOR IOWA
NATIONAL WEATHER SERVICE DES MOINES IA
100 AM CST THU NOV 23 2017

NOTE: "FAIR" INDICATES FEW OR NO CLOUDS BELOW 12,000 FEET WITH NO
SIGNIFICANT WEATHER AND/OR OBSTRUCTIONS TO VISIBILITY.

* - THESE STATIONS ARE NOT NWS STATIONS...THUS NOT UNDER NWS
QUALITY CONTROL.  THEY ALSO DO NOT REPORT WEATHER SUCH
AS PRECIPITATION OR FOG.

IAZ001>003-012>014-020>022-031>034-043>046-230800-
   NORTHWEST IOWA

CITY           SKY/WX    TMP DP  RH WIND       PRES   REMARKS
CARROLL *      CLOUDY    36  19  51 SW18G25   29.94F WCI  25
CHEROKEE *     CLOUDY    33  21  62 S6        29.95S WCI  27
DENISON *      CLEAR     34  19  55 S5        29.98F WCI  30
LE MARS *      CLOUDY    30  21  69 S6        29.95F WCI  24
ORANGE CITY *  CLOUDY    30  23  74 SW3       29.94F
SHELDON *      CLEAR     28  19  69 CALM      29.93S
SIOUX CITY     CLEAR     28  20  71 E8        29.97S WCI  20
SPENCER        CLOUDY    27  19  72 SW6       29.93F WCI  20
STORM LAKE *   CLEAR     34  21  60 W14       29.93F WCI  24
$$

IAZ055>058-069>071-079>083-090>094-230800-
   SOUTHWEST IOWA

CITY           SKY/WX    TMP DP  RH WIND       PRES   REMARKS
ATLANTIC *     CLEAR     30  21  69 SW8       30.00F WCI  23
AUDUBON *      CLEAR     34  19  55 S5        29.99F WCI  30
CLARINDA *       N/A     30  21  69 S7        30.04F WCI  23
COUNCIL BLFS * CLEAR     36  21  55 SW12      29.99F WCI  27
CRESTON *      CLEAR     30  19  64 SW9       30.02F WCI  22
HARLAN  *      CLEAR     30  21  69 S6        30.02F WCI  24
LAMONI         CLEAR     31  18  58 S8        30.04F WCI  23
RED OAK *      CLEAR     30  21  69 S7        30.02F WCI  23
SHENANDOAH *   CLEAR     34  21  60 S6        30.03F WCI  29
$$

IAZ047>049-059>061-072>074-084-230800-
   CENTRAL IOWA

CITY           SKY/WX    TMP DP  RH WIND       PRES   REMARKS
AMES           CLEAR     29  20  69 S6        30.00F WCI  23
ANKENY *       CLEAR     34  18  51 SW8       30.01F WCI  27
BOONE *        CLEAR     32  18  55 SW8       29.97S WCI  25
CHARITON *     CLEAR     34  18  51 SW13      30.02F WCI  25
DES MOINES     CLEAR     32  17  54 S6        30.00F WCI  26
GRINNELL*      PTCLDY    32  18  57 S10       30.03F WCI  23
KNOXVILLE *    PTCLDY    36  16  44 S14       30.00F WCI  27
MARSHALLTOWN   CLEAR     30  18  60 S9        30.00F WCI  22
NEWTON *       CLEAR     32  18  55 S8        30.02F WCI  25
PELLA *        PTCLDY    34  17  50 S7        30.04F WCI  28
PERRY *          N/A     28  18  64 S8        29.98F WCI  20
$$

IAZ004>006-015-016-023>025-035-036-230800-
   NORTH CENTRAL IOWA

CITY           SKY/WX    TMP DP  RH WIND       PRES   REMARKS
ALGONA *       CLEAR     28  19  69 S7        29.92F WCI  21
CLARION *      CLEAR     28  19  69 S10       29.95F WCI  19
ESTHERVILLE    CLOUDY    29  19  66 SW8       29.92F WCI  21
FORT DODGE *   CLOUDY    31  20  63 S10       29.95F WCI  22
MASON CITY     CLOUDY    24  16  71 S6        29.96F WCI  17
FOREST CITY *    N/A     28  19  69 S5        29.94F WCI  23
WEBSTER CITY * CLEAR     28  18  64 S8        29.95F WCI  20
IOWA FALLS *     N/A     29  19  66 S6        29.99F WCI  23
$$

IAZ007>011-017>019-026>030-037>042-050>054-066-230800-
   NORTHEAST IOWA

CITY           SKY/WX    TMP DP  RH WIND       PRES   REMARKS
CEDAR RAPIDS   CLOUDY    33  17  51 S13G20    30.04F WCI  24
CHARLES CITY * CLEAR     30  18  59 S9        29.97F WCI  22
CLINTON *      CLOUDY    33  20  58 S9        30.11F WCI  25
DECORAH *      CLOUDY    32  18  55 S8G15     29.97F WCI  25
DUBUQUE        CLOUDY    32  19  58 S13       30.05F WCI  22
MONTICELLO *   CLOUDY    32  19  59 S10       30.05F WCI  24
OELWEIN *      CLOUDY    32  18  55 S15G21    30.01F WCI  22
WATERLOO       CLOUDY    31  16  54 S9        30.00F WCI  23
$$

IAZ064-065-067-068-078-230800-
   EAST CENTRAL IOWA

CITY           SKY/WX    TMP DP  RH WIND       PRES   REMARKS
DAVENPORT      CLOUDY    33  19  56 S13       30.13F WCI  24
IOWA CITY      CLOUDY    32  21  64 SE7       30.10F WCI  26
MT. PLEASANT * MOCLDY    32  18  55 S9        30.11F WCI  24
MUSCATINE *    CLOUDY    34  19  55 S8        30.12F WCI  27
QUAD CITIES    CLOUDY    35  18  49 SW10      30.12F WCI  27
$$

IAZ062-063-075>077-085>089-095>099-230800-
   SOUTHEAST IOWA

CITY           SKY/WX    TMP DP  RH WIND       PRES   REMARKS
BURLINGTON     CLOUDY    32  21  64 S8        30.12F WCI  25
FAIRFIELD *    CLOUDY    34  16  47 S9        30.08F WCI  26
FORT MADISON * CLOUDY    34  19  55 S8        30.12F WCI  27
KEOKUK *       CLOUDY    32  19  59 S9        30.12F WCI  24
OSKALOOSA *    MOCLDY    32  20  60 S8        30.05F WCI  25
OTTUMWA        PTCLDY    33  18  53 S10       30.06F WCI  25
WASHINGTON *   CLOUDY    34  19  55 S9        30.09F WCI  26
$$

ABBREVIATIONS USED IN REMARKS
   TC - TEMPERATURES IN CELSIUS
  WCI - WIND CHILL INDEX
   HX - HEAT INDEX
  VSB - VISIBILITY
$$





USA.gov is the U.S. government's official web portal to all federal, state and local government web resources and services.